Auburn, Auburn Municipal Airport, United States
Lat: 38.95N, Lon: 121.07W
Local Info
Past Weather Observations for Sunday, September 28, 2014

NOTE: This archive is for the closest National Weather Service station to Auburn, Auburn Municipal Airport. Information may differ from the station used for current weather conditions.

Click here for Long-term Archive

Time Weather Temperature Dewpoint Humidity Pressure Winds Precip Visibility
23:55
Clear
54°F / 12°C 52°F / 11°C 94% 29.98 in
(1015 mb)
E 4.6 mph
(E 7 kph)
- 10SM
23:35
Clear
54°F / 12°C 52°F / 11°C 94% 29.98 in
(1015 mb)
ENE 3.5 mph
(ENE 6 kph)
- 10SM
23:15
Clear
55°F / 13°C 52°F / 11°C 88% 29.98 in
(1015 mb)
Calm - 10SM
22:55
Clear
54°F / 12°C 52°F / 11°C 94% 29.98 in
(1015 mb)
Calm - 10SM
22:35
Clear
55°F / 13°C 52°F / 11°C 88% 29.98 in
(1015 mb)
Calm - 10SM
22:15
Clear
55°F / 13°C 52°F / 11°C 88% 29.98 in
(1015 mb)
Calm - 10SM
21:55
Clear
57°F / 14°C 52°F / 11°C 82% 29.98 in
(1015 mb)
E 3.5 mph
(E 6 kph)
- 10SM
21:35
Clear
57°F / 14°C 52°F / 11°C 82% 29.98 in
(1015 mb)
E 4.6 mph
(E 7 kph)
- 10SM
21:15
Clear
57°F / 14°C 52°F / 11°C 82% 29.98 in
(1015 mb)
Calm - 10SM
20:55
Clear
55°F / 13°C 52°F / 11°C 88% 29.98 in
(1015 mb)
Calm - 10SM
20:35
Clear
55°F / 13°C 52°F / 11°C 88% 29.98 in
(1015 mb)
Calm - 10SM
20:15
Clear
55°F / 13°C 52°F / 11°C 88% 29.98 in
(1015 mb)
Calm - 10SM
19:55
Clear
57°F / 14°C 52°F / 11°C 82% 29.98 in
(1015 mb)
Calm - 10SM
19:35
Clear
59°F / 15°C 52°F / 11°C 77% 29.95 in
(1014 mb)
Calm - 10SM
19:15
Clear
55°F / 13°C 52°F / 11°C 88% 29.95 in
(1014 mb)
Calm - 10SM
18:55
Clear
57°F / 14°C 52°F / 11°C 82% 29.95 in
(1014 mb)
Calm - 10SM
18:35
Clear
57°F / 14°C 52°F / 11°C 82% 29.95 in
(1014 mb)
Calm - 10SM
18:15
Clear
61°F / 16°C 52°F / 11°C 72% 29.95 in
(1014 mb)
Calm - 10SM
17:55
Clear
63°F / 17°C 52°F / 11°C 68% 29.95 in
(1014 mb)
WNW 3.5 mph
(WNW 6 kph)
- 10SM
17:35
Clear
64°F / 18°C 52°F / 11°C 64% 29.95 in
(1014 mb)
WNW 3.5 mph
(WNW 6 kph)
- 10SM
17:15
Clear
64°F / 18°C 52°F / 11°C 64% 29.95 in
(1014 mb)
W 5.8 mph
(W 9 kph)
- 10SM
16:55
Partly Cloudy
66°F / 19°C 52°F / 11°C 60% 29.95 in
(1014 mb)
WNW 4.6 mph
(WNW 7 kph)
- 10SM
16:35
Clear
66°F / 19°C 52°F / 11°C 60% 29.95 in
(1014 mb)
Calm - 10SM
16:15
Partly Cloudy
66°F / 19°C 52°F / 11°C 60% 29.95 in
(1014 mb)
NW 3.5 mph
(NW 6 kph)
- 10SM
15:55
Clear
66°F / 19°C 52°F / 11°C 60% 29.95 in
(1014 mb)
SW 3.5 mph
(SW 6 kph)
- 10SM
15:35
Clear
64°F / 18°C 52°F / 11°C 64% 29.95 in
(1014 mb)
Calm - 10SM
15:15
Partly Cloudy
64°F / 18°C 52°F / 11°C 64% 29.95 in
(1014 mb)
Calm - 10SM
14:55
Mostly Cloudy
64°F / 18°C 54°F / 12°C 68% 29.95 in
(1014 mb)
Calm - 10SM
14:35
Mostly Cloudy
63°F / 17°C 52°F / 11°C 68% 29.95 in
(1014 mb)
Calm - 10SM
14:15
Mostly Cloudy
63°F / 17°C 54°F / 12°C 73% 29.95 in
(1014 mb)
SE 4.6 mph
(SE 7 kph)
- 10SM
13:55
Overcast
63°F / 17°C 55°F / 13°C 77% 29.95 in
(1014 mb)
ESE 5.8 mph
(ESE 9 kph)
- 10SM
13:35
Overcast
63°F / 17°C 55°F / 13°C 77% 29.95 in
(1014 mb)
E 4.6 mph
(E 7 kph)
- 10SM
13:15
Overcast
61°F / 16°C 55°F / 13°C 83% 29.95 in
(1014 mb)
E 5.8 mph
(E 9 kph)
- 10SM
12:55
Overcast
61°F / 16°C 55°F / 13°C 83% 29.95 in
(1014 mb)
E 8.1 mph
(E 13 kph)
- 10SM
12:35
Overcast
61°F / 16°C 55°F / 13°C 83% 29.95 in
(1014 mb)
E 9.2 mph
(E 15 kph)
- 10SM
12:15
Overcast
61°F / 16°C 57°F / 14°C 88% 29.95 in
(1014 mb)
ESE 6.9 mph
(ESE 11 kph)
- 10SM
11:55
Overcast
59°F / 15°C 55°F / 13°C 88% 29.95 in
(1014 mb)
SE 6.9 mph
(SE 11 kph)
0.01 in
(0.25 mm)
10SM
11:35
Overcast
59°F / 15°C 55°F / 13°C 88% 29.95 in
(1014 mb)
SE 5.8 mph
(SE 9 kph)
0.01 in
(0.25 mm)
8SM
11:15
Overcast
57°F / 14°C 55°F / 13°C 94% 29.95 in
(1014 mb)
SE 4.6 mph
(SE 7 kph)
0.01 in
(0.25 mm)
6SM
10:55
Overcast
57°F / 14°C 55°F / 13°C 94% 29.95 in
(1014 mb)
SE 5.8 mph
(SE 9 kph)
0.02 in
(0.51 mm)
5SM
10:35
Overcast
57°F / 14°C 55°F / 13°C 94% 29.95 in
(1014 mb)
SE 5.8 mph
(SE 9 kph)
0.01 in
(0.25 mm)
5SM
10:15
Overcast
57°F / 14°C 54°F / 12°C 88% 29.95 in
(1014 mb)
SE 6.9 mph
(SE 11 kph)
0.01 in
(0.25 mm)
5SM
09:55
Overcast
59°F / 15°C 52°F / 11°C 77% 29.95 in
(1014 mb)
SE 6.9 mph
(SE 11 kph)
- 10SM
09:35
Mostly Cloudy
59°F / 15°C 52°F / 11°C 77% 29.92 in
(1013 mb)
ESE 6.9 mph
(ESE 11 kph)
- 10SM
09:15
Mostly Cloudy
59°F / 15°C 52°F / 11°C 77% 29.92 in
(1013 mb)
SE 5.8 mph
(SE 9 kph)
- 10SM
08:55
Mostly Cloudy
61°F / 16°C 52°F / 11°C 72% 29.92 in
(1013 mb)
ESE 5.8 mph
(ESE 9 kph)
- 9SM
08:35
Mostly Cloudy
59°F / 15°C 52°F / 11°C 77% 29.92 in
(1013 mb)
SE 4.6 mph
(SE 7 kph)
- 9SM
08:15
Mostly Cloudy
57°F / 14°C 52°F / 11°C 82% 29.92 in
(1013 mb)
ESE 6.9 mph
(ESE 11 kph)
- 10SM
07:55
Mostly Cloudy
55°F / 13°C 52°F / 11°C 88% 29.89 in
(1012 mb)
E 6.9 mph
(E 11 kph)
- 10SM
07:35
Overcast
55°F / 13°C 52°F / 11°C 88% 29.89 in
(1012 mb)
ESE 6.9 mph
(ESE 11 kph)
- 10SM
07:15
Mostly Cloudy
55°F / 13°C 52°F / 11°C 88% 29.89 in
(1012 mb)
ESE 6.9 mph
(ESE 11 kph)
- 10SM
06:55
Clear
55°F / 13°C 52°F / 11°C 88% 29.89 in
(1012 mb)
ESE 3.5 mph
(ESE 6 kph)
- 10SM
06:35
Clear
54°F / 12°C 52°F / 11°C 94% 29.86 in
(1011 mb)
E 8.1 mph
(E 13 kph)
- 10SM
06:15
Partly Cloudy
55°F / 13°C 52°F / 11°C 88% 29.86 in
(1011 mb)
SE 6.9 mph
(SE 11 kph)
- 10SM
05:55
Partly Cloudy
54°F / 12°C 52°F / 11°C 94% 29.86 in
(1011 mb)
E 8.1 mph
(E 13 kph)
- 10SM
05:35
Clear
54°F / 12°C 52°F / 11°C 94% 29.86 in
(1011 mb)
Calm - 10SM
05:15
Clear
54°F / 12°C 52°F / 11°C 94% 29.86 in
(1011 mb)
ESE 5.8 mph
(ESE 9 kph)
- 10SM
04:55
Clear
54°F / 12°C 52°F / 11°C 94% 29.83 in
(1010 mb)
ESE 5.8 mph
(ESE 9 kph)
- 10SM
04:35
Clear
54°F / 12°C 52°F / 11°C 94% 29.83 in
(1010 mb)
E 8.1 mph
(E 13 kph)
- 10SM
04:15
Clear
55°F / 13°C 54°F / 12°C 94% 29.83 in
(1010 mb)
E 6.9 mph
(E 11 kph)
- 10SM
03:55
Clear
55°F / 13°C 52°F / 11°C 88% 29.83 in
(1010 mb)
SE 5.8 mph
(SE 9 kph)
- 10SM
03:35
Clear
54°F / 12°C 52°F / 11°C 94% 29.83 in
(1010 mb)
Calm - 10SM
03:15
Clear
55°F / 13°C 54°F / 12°C 94% 29.83 in
(1010 mb)
E 3.5 mph
(E 6 kph)
- 10SM
02:55
Clear
55°F / 13°C 54°F / 12°C 94% 29.83 in
(1010 mb)
E 3.5 mph
(E 6 kph)
- 10SM
02:35
Partly Cloudy
55°F / 13°C 54°F / 12°C 94% 29.83 in
(1010 mb)
Calm - 10SM
02:15
Mostly Cloudy
57°F / 14°C 54°F / 12°C 88% 29.83 in
(1010 mb)
E 5.8 mph
(E 9 kph)
- 10SM
01:55
Partly Cloudy
57°F / 14°C 54°F / 12°C 88% 29.83 in
(1010 mb)
Calm - 10SM
01:35
Partly Cloudy
57°F / 14°C 54°F / 12°C 88% 29.86 in
(1011 mb)
E 3.5 mph
(E 6 kph)
- 10SM
01:15
Mostly Cloudy
57°F / 14°C 54°F / 12°C 88% 29.86 in
(1011 mb)
E 8.1 mph
(E 13 kph)
- 10SM
00:55
Partly Cloudy
57°F / 14°C 54°F / 12°C 88% 29.86 in
(1011 mb)
ESE 4.6 mph
(ESE 7 kph)
- 10SM
00:35
Partly Cloudy
57°F / 14°C 54°F / 12°C 88% 29.83 in
(1010 mb)
E 5.8 mph
(E 9 kph)
- 10SM
00:15
Partly Cloudy
57°F / 14°C 54°F / 12°C 88% 29.83 in
(1010 mb)
Calm - 10SM
Time Weather Temperature Dewpoint Humidity Pressure Winds Precip Visibility


Weather for websites

WeatherForYou.com, LLC is not responsible for any damages or problems caused by this service. Current weather conditions are obtained from the closest station including government and personal stations which may have varying degrees of accuracy. Weather forecasts are derived from the NOAA NDFD. Like all things, this site belongs to Jesus Christ... He just trusts me to maintain it. If you have any questions or comments email webmaster@weatherforyou.com

Copyright © 2014, WeatherForYou.com LLC. All rights reserved.